Simultaneous Nadir Overpasses (SNOs) Predictions

Prediction of SNOs between METOP-B and NOAA-19 Satellite Orbit:

Table of predicted SNOs for the next 14.0 days since TLE Epoch: 7/1/2023
Index Date (METOP-B) Time (METOP-B) Lat,Lon (METOP-B) SZA (METOP-B ) Date (NOAA-19) Time (NOAA-19) Lat,Lon (NOAA-19) SZA (NOAA-19 ) Distance(km) Time Diff (sec)
1 07/05/2023 20:40:47 -80.90, 83.53 120.36 07/05/2023 20:39:43 -80.90, 83.58 120.38 0.98 64
2 07/05/2023 21:31:27 80.91,-109.01 59.67 07/05/2023 21:30:47 80.90,-108.92 59.66 1.47 40
3 07/05/2023 22:22:08 -80.91, 58.38 120.33 07/05/2023 22:21:41 -80.91, 58.47 120.33 1.61 27
4 07/05/2023 23:12:49 80.90,-134.52 59.65 07/05/2023 23:12:46 80.90,-134.41 59.67 1.99 3
5 07/06/2023 00:03:30 -80.90, 32.87 120.34 07/06/2023 00:03:40 -80.91, 32.98 120.32 2.04 10
6 07/06/2023 00:54:10 80.91,-159.67 59.68 07/06/2023 00:54:44 80.91,-159.53 59.71 2.50 34
7 07/06/2023 01:44:51 -80.91, 7.72 120.31 07/06/2023 01:45:38 -80.91, 7.86 120.28 2.55 47



Historial Predications of SNOs between METOP-B and NOAA-19
